Regional Weather Roundup
Issued by NWS

Home | Current Version | Previous Version | Text Only | Print | Product List | Glossary Off
Versions: 1 2 3 4 5 6 7 8 9 10 11 12 13 14 15 16 17 18 19 20 21 22 23 24 25 26 27 28 29 30 31 32 33 34 35 36 37 38 39 40 41 42 43 44 45 46 47 48 49 50

000
ASUS43 KLOT 110503
RWRIL

ILLINOIS REGIONAL WEATHER ROUNDUP
NATIONAL WEATHER SERVICE CHICAGO/ROMEOVILLE IL
1100 PM CST SUN DEC 10 2017

NOTE: "FAIR" INDICATES FEW OR NO CLOUDS BELOW 12,000 FEET WITH NO
SIGNIFICANT WEATHER AND/OR OBSTRUCTIONS TO VISIBILITY.

* THESE STATIONS ARE NOT UNDER NWS QUALITY CONTROL. THEY ALSO MAY NOT
  REPORT WEATHER SUCH AS PRECIPITATION OR FOG.

ILZ001-002-007-009-015-016-024-110600-
NORTHWEST ILLINOIS

CITY           SKY/WX    TMP DP  RH WIND       PRES   REMARKS
MOLINE         CLOUDY    21  17  84 CALM      30.08F
STERLING*      CLOUDY    19  16  88 CALM      30.10S
SAVANNA*       CLOUDY    18  16  90 CALM      30.08F
$$

ILZ003-004-008-010-011-017-018-110600-
NORTH CENTRAL ILLINOIS

CITY           SKY/WX    TMP DP  RH WIND       PRES   REMARKS
ROCKFORD       CLOUDY    22  17  81 CALM      30.09F
FREEPORT*      CLOUDY    19  16  88 CALM      30.08F
ROCHELLE*      CLOUDY    17  14  86 CALM      30.09S
DE KALB*       CLOUDY    23  19  85 NW3       30.07F
PERU*          CLOUDY    23  19  83 CALM      30.10F
$$

ILZ005-006-012>014-019>023-110600-
NORTHEAST ILLINOIS

CITY           SKY/WX    TMP DP  RH WIND       PRES   REMARKS
CHICAGO-OHARE  PTCLDY    27  17  66 NW5       30.07S WCI  22
CHICAGO-MIDWAY MOCLDY    29  19  66 N6        30.08S WCI  23
AURORA         CLOUDY    20  17  88 W5        30.08F WCI  13
LANSING*       CLOUDY    28  21  72 CALM      30.09S
WAUKEGAN       CLOUDY    27  16  63 NW5       30.06F WCI  22
DUPAGE AIRPORT PTCLDY    23  20  88 SW3       30.07S
WHEELING       MOCLDY    28  19  69 NW6       30.09S WCI  22
ROMEOVILLE*    CLOUDY    26  21  83 CALM      30.08F
NORTHERLY ISL    N/A     29  19  66 NW12        N/A  WCI  19
$$

LMZ740>746-110600-
SOUTHERN LAKE MICHIGAN

STATION/POSITION SKY/WX   TEMP    WIND        PRES    VSBY  WAVE
                          AIR SEA DIR/SP/G                  HT/PER
                          (F)     (DEG/KT/KT) (MB)    (MI)  (FT/S)
HARRISON CRIB              30     330/ 11/ 13   N/A
BURNHAM HARBOR             29     280/  6/ 13   N/A
CALUMET HARBOR             28     320/  8/ 12 1018.1F
BURNS HARBOR               31     310/  8/ 12 1018.6S
MICHIGAN CITY              31     300/ 13/ 14   N/A
$$

ILZ025>027-034>036-040-047-049-050-058-095>099-110600-
WEST-CENTRAL ILLINOIS

CITY           SKY/WX    TMP DP  RH WIND       PRES   REMARKS
QUINCY         CLOUDY    32  24  72 CALM      30.11S
GALESBURG*     CLOUDY    23  21  94 CALM      30.10F
MACOMB*        CLOUDY    27  22  82 CALM      30.13S
PITTSFIELD*    CLOUDY    27  21  79 CALM      30.13S
$$

ILZ028>032-037-038-041>044-048-051>054-059>061-110600-
CENTRAL ILLINOIS

CITY           SKY/WX    TMP DP  RH WIND       PRES   REMARKS
BLOOMINGTON    CLOUDY    25  21  85 SW5       30.11R WCI  19
DECATUR        CLOUDY    25  20  81 CALM      30.12F
PEORIA         CLOUDY    24  20  84 CALM      30.11F
LACON*         CLOUDY    22  19  88 CALM      30.11S
LINCOLN*       CLOUDY    24  21  89 CALM      30.12F
SPRINGFIELD    CLOUDY    26  20  77 CALM      30.13S
TAYLORVILLE    CLOUDY    26  22  82 CALM      30.13F
$$

ILZ033-039-045-046-055>057-062-063-110600-
EAST-CENTRAL ILLINOIS

CITY           SKY/WX    TMP DP  RH WIND       PRES   REMARKS
CHAMPAIGN      CLOUDY    21  17  84 SW6       30.11S WCI  13
DANVILLE*      CLOUDY    24  18  77 CALM      30.08S
MATTOON        CLOUDY    27  22  81 NW3       30.11F
$$

ILZ079-100>102-110600-
SOUTHWEST ILLINOIS

CITY           SKY/WX    TMP DP  RH WIND       PRES   REMARKS
ALTON            N/A     26  23  88 CALM      30.13
BELLEVILLE     CLEAR     30  22  71 CALM      30.13R
CAHOKIA*       CLEAR     29  22  75 CALM      30.14S
$$

ILZ064>066-069>071-074>076-080>082-084>086-088>090-092>094-110600-
SOUTH-CENTRAL ILLINOIS

CITY           SKY/WX    TMP DP  RH WIND       PRES   REMARKS
CARBONDALE     CLEAR     27  24  89 CALM      30.15S
CAIRO*         CLEAR     31  29  93 CALM      30.16S
EFFINGHAM*     CLEAR     29  25  84 CALM      30.15S
MARION         CLEAR     34  28  79 CALM      30.16S
MT. VERNON     CLEAR     22  20  92 CALM      30.15R
CENTRALIA*     CLEAR     29  26  88 CALM      30.13S
SALEM*         CLEAR     32  25  75 CALM      30.14S
METROPOLIS*    CLEAR     32  28  86 CALM      30.17R
$$

ILZ067-068-072-073-078-083-087-091-110600-
SOUTHEAST ILLINOIS

CITY           SKY/WX    TMP DP  RH WIND       PRES   REMARKS
LAWRENCEVILLE  CLEAR     32  23  69 NW3       30.14R
FLORA*         CLEAR     35  25  66 W5        30.16R WCI  31
HARRISBURG*    CLEAR     31  28  85 CALM      30.16R
ROBINSON*      CLEAR     28  22  78 CALM      30.15R
CARMI*         CLEAR     30  26  84 CALM      30.15R
$$

ABBREVIATIONS USED IN REMARKS
   TC - TEMPERATURE IN CELSIUS
  WCI - WIND CHILL INDEX
   HX - HEAT INDEX
  VSB - VISIBILITY
$$





USA.gov is the U.S. government's official web portal to all federal, state and local government web resources and services.